This is the latest recevied weather packets stored in our database for station/object K9NZF-2. If no packets are shown the sender has not sent any weather packets the latest 1 day(s).
| Time | Temp. | Humidity | Pressure | Rain* | Wind** | Luminosity | Snow |
|---|---|---|---|---|---|---|---|
| 1778090132 | 11.67° C | 60% | 975.4 hPa | 0 mm | - | - | - |
| 1778090072 | 11.67° C | 59% | 975.4 hPa | 0 mm | - | - | - |
| 1778089956 | 11.67° C | 59% | 975.4 hPa | 0 mm | - | - | - |
| 1778089891 | 11.67° C | 61% | 975.4 hPa | 0 mm | - | - | - |
| 1778089831 | 12.22° C | 63% | 975.3 hPa | 0 mm | - | - | - |
| 1778089230 | 12.22° C | 63% | 975.3 hPa | 0 mm | - | - | - |
| 1778089172 | 12.22° C | 59% | 975.3 hPa | 0 mm | - | - | - |
| 1778088926 | 12.22° C | 64% | 975.3 hPa | 0 mm | - | - | - |
| 1778088806 | 11.67° C | 62% | 975.3 hPa | 0 mm | - | - | - |
| 1778088501 | 11.67° C | 59% | 975.3 hPa | 0 mm | - | - | - |
| 1778088374 | 11.67° C | 61% | 975.3 hPa | 0 mm | - | - | - |
| 1778088313 | 11.67° C | 60% | 975.3 hPa | 0 mm | - | - | - |
| 1778087890 | 11.67° C | 57% | 975.6 hPa | 0 mm | - | - | - |
| 1778087407 | 12.22° C | 60% | 975.6 hPa | 0 mm | - | - | - |
| 1778087224 | 12.22° C | 58% | 975.5 hPa | 0 mm | - | - | - |
| 1778087106 | 12.22° C | 59% | 975.5 hPa | 0 mm | - | - | - |
| 1778086444 | 12.22° C | 57% | 975.3 hPa | 0 mm | - | - | - |
| 1778086262 | 12.78° C | 60% | 975.4 hPa | 0 mm | - | - | - |
| 1778086023 | 12.78° C | 60% | 975.3 hPa | 0 mm | - | - | - |
| 1778085725 | 12.78° C | 60% | 975.2 hPa | 0 mm | - | - | - |
| 1778084881 | 12.78° C | 59% | 975 hPa | 0 mm | - | - | - |
| 1778084642 | 12.22° C | 61% | 975.3 hPa | 0 mm | - | - | - |
| 1778084522 | 12.22° C | 60% | 975.5 hPa | 0 mm | - | - | - |
| 1778084463 | 12.22° C | 60% | 975.5 hPa | 0 mm | - | - | - |
| 1778084162 | 12.22° C | 59% | 975.4 hPa | 0 mm | - | - | - |
* Rain latest hour (hover to see other rain measurements)
** Current wind speed in m/s (hover to see current wind gust speed)